Location: Arroyo de la Cueva
(40.3833°N, 4.8833°W)
Time: 20:40:04
(UTC+00:00)

Daily predictions for brighter satellites

Satellite Brightness Start Highest point End
(mag) Time Altitude Azimuth Time Altitude Azimuth Time Altitude Azimuth
Cosmos 1066 Rocket 4.4 18:37:41 10° N 18:43:33 86° W 18:49:15 10° S
ASTRO E2 4.4 18:44:04 10° SSW 18:45:50 14° S 18:47:38 10° SE
Cosmos 2208 Rocket 4.1 18:42:58 10° S 18:48:06 55° ESE 18:53:19 10° NNE
Cosmos 1733 3.2 18:48:26 10° SSE 18:51:43 45° E 18:54:59 10° NNE
SL-16 R/B 2.9 18:47:06 10° SSE 18:52:02 32° ESE 18:56:59 10° NE
ACS3 Solar Sail 3.5 18:49:38 10° E 18:53:08 15° ENE 18:56:36 10° NNE
USA 276 4.2 18:51:39 10° W 18:53:59 22° SW 18:56:13 10° S
Cosmos 1805 4.3 18:52:45 10° SE 18:55:30 21° E 18:58:17 10° NE
Cosmos 1315 Rocket 3.7 18:55:26 10° NNE 18:58:56 29° ENE 19:02:23 10° SE
Cosmos 1536 2.6 18:55:10 10° S 18:58:57 69° E 19:02:47 10° NNE
CZ-2C R/B 3.7 18:57:34 10° S 19:00:53 45° W 19:04:12 10° NNW
Resurs 1-3 4.0 18:57:07 10° SE 19:01:08 39° ENE 19:05:12 10° N
BREEZE M DEB (TANK) 4.3 18:56:32 10° WSW 19:01:23 88° NNW 19:19:50 10° ENE
Cosmos 1842 3.1 18:58:39 10° N 19:02:17 81° W 19:05:54 10° S
YAOGAN 3 4.5 18:58:19 10° SSE 19:02:34 77° ENE 19:06:52 10° N
SPOT 1/Viking Rocket 3.9 18:59:52 10° SE 19:04:43 43° ENE 19:09:34 10° N
ATLAS CENTAUR R/B 3.7 19:02:20 10° W 19:05:04 20° NW 19:07:54 10° N
Meteor 1-11 Rocket 3.7 19:00:04 10° S 19:05:31 58° E 19:10:56 10° NNE
Cosmos 2278 Rocket 2.8 19:03:05 10° NNW 19:08:40 61° WSW 19:14:13 10° S
Meteor 2-9 Rocket 4.2 19:03:48 10° S 19:08:59 53° E 19:14:18 10° NNE
Cosmos 1515 Rocket 3.5 19:06:07 10° N 19:10:29 67° E 19:14:50 10° SSE
ADEOS 3.8 19:06:58 10° SE 19:11:58 50° ENE 19:17:01 10° N
CZ-4B R/B 4.2 19:13:15 13° ESE 19:16:53 26° ENE 19:21:14 10° N
USA 59 Rocket 2.5 19:13:35 10° WNW 19:17:27 27° WSW 19:22:29 10° S
Cosmos 1356 Rocket 3.9 19:13:56 10° NNW 19:18:04 65° W 19:22:08 10° S
Cosmos 1500 Rocket 3.6 19:16:35 10° S 19:20:48 52° E 19:25:01 10° NNE
YAOGAN 1 3.2 19:18:02 10° S 19:22:14 58° W 19:26:29 10° NNW
USA 186 3.1 19:24:40 22° ENE 19:24:52 22° ENE 19:27:25 10° NNE
CZ-4B R/B 3.3 19:22:27 10° SSE 19:27:10 68° ENE 19:32:01 10° N
SJ-6B 2.5 19:24:10 10° SSE 19:27:42 62° ENE 19:31:15 10° N
ARGOS Delta rocket 3.9 19:23:00 10° SSE 19:27:48 56° ENE 19:32:20 10° N
Cosmos 773 Rocket 3.9 19:23:28 10° S 19:28:42 73° ESE 19:33:59 10° NNE
Cosmos 2237 Rocket 3.8 19:25:17 10° SW 19:30:26 36° WNW 19:35:37 10° N
Cosmos 1743 Rocket 3.7 19:26:38 10° SSE 19:30:47 49° E 19:34:59 10° NNE
OPS 6432 4.4 19:27:48 10° NNW 19:30:51 52° NE 19:32:07 30° ESE
SWARM A 4.3 19:27:37 10° S 19:31:03 61° E 19:34:30 10° N
Meteor 2-10 4.5 19:26:47 10° SSW 19:32:25 74° W 19:38:10 10° N
Cosmos 1408 Rocket 3.6 19:28:23 10° S 19:32:46 84° W 19:37:13 10° N
Nadezhda 4 Rocket 4.0 19:27:37 10° N 19:33:57 78° E 19:40:17 10° S
Cosmos 1125 Rocket 4.1 19:29:22 10° NNW 19:34:29 59° WSW 19:39:35 10° S
OAO 3 Rocket 3.8 19:30:42 10° WSW 19:35:16 44° S 19:37:37 25° SE
Cosmos 724 4.3 19:30:43 10° SSW 19:36:30 85° WNW 19:42:20 10° NNE
In-Cosmos 22 4.3 19:31:39 10° NNW 19:37:16 80° W 19:42:42 10° S
Cosmos 2026 Rocket 4.2 19:33:24 10° N 19:39:17 44° ENE 19:43:32 18° SE
SL-08 R/B 3.5 19:34:22 10° N 19:39:17 77° WNW 19:44:08 10° SSW
Cosmos 2150 Rocket 3.9 19:34:14 10° NNW 19:39:23 77° ENE 19:43:55 13° SSE
Cosmos 1943 Rocket 3.0 19:34:13 10° NW 19:39:31 49° WSW 19:44:51 10° S
Sich 1 2.9 19:35:21 10° S 19:39:36 80° E 19:43:57 10° N
Tiangong -2.3 19:37:12 10° WSW 19:40:19 82° SSE 19:41:06 47° E
Helios 1A 2.8 19:36:13 10° NNE 19:40:19 86° ESE 19:44:23 10° SSW
Okean O Rocket 2.8 19:41:03 23° ENE 19:41:10 23° ENE 19:44:38 10° NNE
CARTOSAT-1 3.9 19:40:01 28° ESE 19:41:43 42° ENE 19:45:44 10° N
SeaSat 1 4.0 19:37:55 10° N 19:42:25 37° NW 19:46:53 10° WSW
Cosmos 2298 Rocket 3.9 19:37:13 10° NNW 19:42:33 82° ENE 19:47:18 13° SSE
USA 32 4.1 19:41:41 10° N 19:46:50 56° E 19:50:47 17° SSE
CZ-4 R/B 1.1 19:45:59 21° SSE 19:48:27 77° ENE 19:52:22 10° N
Cosmos 1092 Rocket 4.1 19:43:45 10° N 19:49:58 53° E 19:54:22 20° SSE
CSL-04 Debris 4.4 19:48:56 26° SE 19:51:50 51° ENE 19:57:07 10° N
Cosmos 1656 Rocket 3.8 19:47:49 10° NNW 19:53:20 53° ENE 19:55:32 33° ESE
ARIANE 6 FM1 Upper Stage 2.6 19:51:03 10° SSW 19:55:18 71° ESE 19:58:11 20° NE
Cosmos 2297 3.9 19:49:54 10° NNW 19:55:22 49° ENE 19:57:17 35° ESE
Aureole 3 Rocket 3.5 19:49:35 10° S 19:55:44 85° W 20:00:07 10° N
PAYLOAD B 4.2 19:50:53 13° SSE 19:55:51 78° ENE 20:01:29 10° N
STPSAT 2 (USA 217) 4.5 19:53:15 10° NNW 19:57:48 77° ENE 19:59:28 38° SSE
CZ-4B R/B 2.8 19:55:46 25° SSE 19:58:05 87° W 20:02:15 10° NNW
Cosmos 2369 Rocket 2.6 19:54:38 10° N 20:00:05 43° ENE 20:01:28 37° E
Meteor 1-23 Rocket 4.2 19:57:17 10° N 20:02:59 89° W 20:08:08 13° S
Cosmos 1634 Rocket 4.0 19:57:20 10° S 20:03:32 63° E 20:09:46 10° NNE
Cosmos 1441 Rocket 2.8 20:03:44 78° ESE 20:03:48 78° E 20:07:21 10° NNE
Cosmos 1805 Rocket 4.1 19:59:37 10° SSW 20:03:51 58° W 20:08:09 10° N
Cosmos 1975 2.7 20:03:49 10° S 20:07:41 82° W 20:11:36 10° N
Cosmos 2084 Rocket 3.8 20:04:48 10° SW 20:09:07 62° NW 20:13:12 11° NNE
Resurs 01 Rocket 1.5 20:07:53 39° SSE 20:09:30 88° ENE 20:13:56 10° NNW
Cosmos 2228 Rocket 3.5 20:06:06 10° N 20:10:04 45° ENE 20:10:04 45° ENE
NOSS 3-4 (A) 3.9 20:05:48 10° NNW 20:12:46 67° NE 20:15:59 38° ESE
NOSS 3-4 (C) 3.9 20:05:54 10° NNW 20:12:52 66° NE 20:16:02 38° ESE
Meteor 1-16 4.5 20:09:51 10° S 20:15:18 82° E 20:20:46 10° N
Okean-O 4.1 20:17:08 24° NNE 20:17:08 24° NNE 20:19:24 10° N
Feng Yun 1-1 Rocket 4.3 20:17:53 31° SSE 20:20:50 89° ENE 20:26:47 10° NNW
ISS -1.1 20:20:35 10° NNW 20:22:09 13° N 20:22:09 13° N
Cosmos 1862 Rocket 4.4 20:18:32 10° N 20:21:39 39° NNE 20:21:39 39° NNE
Cosmos 1707 Rocket 4.0 20:21:37 10° N 20:25:01 49° NNE 20:25:01 49° NNE
Cosmos 1666 Rocket 4.3 20:28:15 40° NNE 20:28:15 40° NNE 20:31:06 10° N
Cosmos 2142 Rocket 4.4 20:32:14 58° E 20:32:14 58° E 20:38:08 10° NNE
Cosmos 2279 Rocket 3.8 20:33:08 47° SSE 20:35:00 74° E 20:41:12 10° N
SL-16 R/B 3.7 20:30:49 10° SW 20:36:01 36° WNW 20:41:14 10° N
ACS3 Solar Sail 1.8 20:33:51 43° SSE 20:36:13 89° ENE 20:42:40 10° NNW
Spot 3 4.5 20:38:18 79° ESE 20:38:28 80° ENE 20:43:56 10° NNW
Cosmos 1943 3.1 20:42:55 10° SSW 20:49:01 75° NNE 20:54:13 10° NNE
CSL-04 Rocket 4.5 20:53:35 36° SW 20:55:06 46° W 21:00:11 10° NNW
CZ-4B R/B 4.2 20:55:08 29° SW 20:57:12 40° W 21:02:14 10° NNW
MOS 1 4.4 20:59:59 71° N 20:59:59 71° N 21:05:01 10° NNW
Cosmos 2263 4.4 20:58:29 10° NNW 21:03:28 67° NW 21:03:28 67° NW
Okean O Rocket 3.5 21:18:23 28° WNW 21:18:23 28° WNW 21:21:12 10° NNW
Terra 4.2 21:39:40 18° NNW 21:39:40 18° NNW 21:40:53 10° NNW
Cosmos 2369 Rocket 4.0 21:39:10 10° NW 21:43:16 26° W 21:43:16 26° W
Cosmos 2344 4.5 22:08:06 10° NNW 22:15:07 50° NNE 22:15:07 50° NNE
ACS3 Solar Sail 4.3 22:19:05 12° WSW 22:20:59 13° W 22:23:57 10° WNW
